Regional Weather Roundup
Issued by NWS

Home | Current Version | Previous Version | Text Only | Print | Product List | Glossary Off
Versions: 1 2 3 4 5 6 7 8 9 10 11 12 13 14 15 16 17 18 19 20 21 22 23 24 25 26 27 28 29 30 31 32 33 34 35 36 37 38 39 40 41 42 43 44 45 46 47 48 49 50

000
ASUS45 KABQ 230701
RWRNM
NEW MEXICO REGIONAL WEATHER ROUNDUP
NATIONAL WEATHER SERVICE ALBUQUERQUE NM
100 AM MDT SAT SEP 23 2017

NOTE: "FAIR" MEANS FEW OR NO CLOUDS BELOW 12,000 FEET AGL WITH NO
       SIGNIFICANT WEATHER OR OBSTRUCTIONS TO VISION.

      THIS PRODUCT IS RELEASED AS TWO VERSIONS.  ONE VERSION NEAR
      THE TOP OF THE HOUR CONTAINING PRELIMINARY DATA FROM ALBUQUERQUE
      AND OTHER STATIONS.  A FINAL VERSION WITH ADDITIONAL DATA IS
      ISSUED ABOUT 10 MINUTES AFTER THE HOUR.

NMZ501-503-504-510>518-230800-
NORTHWEST PLATEAU/NORTHCENTRAL MOUNTAINS

CITY           SKY/WX    TMP DP  RH WIND       PRES   REMARKS
FARMINGTON     FAIR      55  27  34 N3        29.87S
LOS ALAMOS     FAIR      64  32  30 S5        30.01F
SANTA FE       MOCLDY    63  39  41 SE6       29.96F
TAOS           MOCLDY    60  42  51 S10       30.04S
ANGEL FIRE     FAIR      56  37  50 S12       30.11F

$$
NMZ402-403-502-505>509-230800-
WESTCENTRAL MOUNTAINS/SOUTHWEST MOUNTAINS

CITY           SKY/WX    TMP DP  RH WIND       PRES   REMARKS
GALLUP         MOCLDY    50  29  44 E6        29.94S
GRANTS         CLOUDY    58  40  51 S3        29.98S
SILVER CITY    FAIR      57  44  60 NW8       29.92F

$$
NMZ407-409-411-412-230800-
SOUTHERN DESERTS

CITY           SKY/WX    TMP DP  RH WIND       PRES   REMARKS
DEMING         MOCLDY    69  42  37 SE3       29.86S
LAS CRUCES     FAIR      71  37  27 CALM      29.88S
HOLLOMAN AFB   MOCLDY    77  55  45 S12       29.85S
ALAMOGORDO     MOCLDY    75  54  46 S10       29.85S
T OR C         CLOUDY    75  39  27 S6        29.86S

$$
NMZ519>523-230800-
CENTRAL VALLEYS/CENTRAL HIGHLANDS

CITY           SKY/WX    TMP DP  RH WIND       PRES   REMARKS
ALBUQUERQUE    MOCLDY    69  35  28 S7        29.89F
CLINES CORNERS FAIR      58  37  45 S10       30.04S
BELEN          MOCLDY    62  32  32 W5        29.88F
SOCORRO        MOCLDY    66  35  32 S6        29.87S

$$
NMZ524>526-539-540-230800-
SOUTHCENTRAL MOUNTAINS

CITY           SKY/WX    TMP DP  RH WIND       PRES   REMARKS
RUIDOSO        MOCLDY    63  52  67 W5        30.06S

$$
NMZ527>531-230800-
NORTHEAST HIGHLANDS/NORTHEAST PLAINS

CITY           SKY/WX    TMP DP  RH WIND       PRES   REMARKS
LAS VEGAS      FAIR      61  51  70 S17       30.02F
RATON          MOCLDY    63  57  81 S16       29.97R
CLAYTON        FAIR      60  59  96 S7        29.95R

$$
NMZ532>537-230800-
EASTCENTRAL PLAINS

CITY           SKY/WX    TMP DP  RH WIND       PRES   REMARKS
SANTA ROSA     FAIR      71  60  68 S21G26    29.90F
TUCUMCARI      MOCLDY    73  63  70 S14       29.88S
CANNON AFB     FAIR      68  68 100 SE12      29.94S
CLOVIS AIRPORT FAIR      68  61  78 S12       29.94S

$$
NMZ028-029-538-230800-
SOUTHEAST PLAINS

CITY           SKY/WX    TMP DP  RH WIND       PRES   REMARKS
ROSWELL        FAIR      76  62  62 S15       29.86S
ARTESIA        FAIR      77  63  61 S15       29.86S
CARLSBAD       FAIR      72  67  84 S8        29.84S
HOBBS          FAIR      73  61  64 S16       29.90S


$$




USA.gov is the U.S. government's official web portal to all federal, state and local government web resources and services.